Wind_Speed
0 1 1 2 3 3 4 5 5 5 5 6 6 6 6 7 7 7 7 7 7 7 8 8 8 9 9 8 8 8 7 7 7 7 6 6 6 6 5 5 5 4 4
2 2 3 4 4 4 5 6 6 7 7 7 7 7 8 8 8 8 8 8 8 8 9 9 9 9 9 9 8 8 8 7 7 7 7 7 7 6 6 6 5 5 5
3 4 5 5 5 6 7 7 7 8 8 8 9 9 9 9 9 9 10 10 9 9 9 9 9 10 10 10 9 9 9 8 8 8 8 8 7 7 7 7 6 6 6
5 5 6 6 7 7 8 8 9 9 9 10 10 10 10 11 11 11 11 11 11 10 10 11 11 10 10 10 10 10 9 9 9 9 9 9 8 8 8 8 8 7 7
6 7 7 8 8 9 9 10 10 10 11 11 11 11 12 12 13 12 12 12 12 12 11 12 12 11 11 11 10 10 10 10 10 10 10 10 10 10 10 10 10 9 9
8 8 9 9 10 10 11 11 11 12 12 12 13 13 14 14 14 14 13 13 13 13 13 12 13 13 13 12 11 11 11 11 11 11 12 12 12 11 11 11 11 11 11
9 9 10 10 11 11 12 13 13 13 13 13 14 15 15 15 15 15 14 14 14 14 14 14 14 14 14 13 13 12 12 12 12 12 13 13 13 13 13 13 13 13 12
10 10 11 11 11 12 13 13 14 14 14 15 16 16 16 16 16 16 16 16 16 16 16 16 15 15 15 15 14 13 13 14 14 14 14 15 15 15 15 15 14 14 14
11 12 12 12 13 14 14 14 15 16 17 18 18 17 17 17 17 17 17 17 17 17 17 17 17 17 16 16 15 15 15 15 16 16 16 16 16 17 17 16 15 15 14
13 13 13 13 14 15 16 17 17 18 18 19 18 18 18 19 19 19 19 19 19 19 19 19 18 18 18 17 17 16 17 17 18 18 18 17 17 17 18 18 17 17 16
14 14 15 16 17 17 18 18 19 19 19 19 19 19 20 20 20 20 20 20 20 20 20 20 20 19 19 19 19 18 18 18 19 19 19 18 18 18 18 18 18 18 17
15 16 17 18 19 19 19 19 20 20 20 21 20 20 21 21 21 21 21 21 21 21 21 21 21 20 21 21 21 20 20 20 20 20 20 19 19 18 18 19 20 20 19
16 17 18 19 20 20 20 20 21 21 21 21 21 22 22 22 22 22 22 22 22 22 22 22 22 22 22 23 23 23 22 22 21 21 21 20 20 19 19 20 20 20 20
17 18 19 19 20 21 20 20 21 21 21 21 21 22 23 23 24 23 23 23 23 23 23 23 24 24 24 24 24 24 24 24 23 23 22 22 22 21 21 20 21 21 20
19 20 20 20 21 21 21 21 21 21 21 22 22 22 22 23 24 24 24 24 23 23 23 24 24 25 25 25 25 25 25 25 25 24 24 24 24 23 22 22 22 22 21
19 19 20 20 21 21 21 21 21 21 21 23 23 23 23 23 24 25 25 25 24 24 24 25 25 25 26 26 26 26 25 26 25 25 25 25 25 25 25 24 23 23 22
19 20 21 20 21 21 21 22 22 22 22 22 23 23 24 24 24 24 25 25 25 24 24 25 25 25 26 27 27 26 26 26 26 26 26 26 27 27 26 26 25 25 23
19 19 19 20 20 20 21 22 22 22 22 23 23 24 24 24 25 25 25 26 26 26 26 26 25 26 26 27 27 27 27 27 27 26 25 26 28 28 27 27 27 26 25
19 19 20 20 20 21 22 23 24 24 23 24 24 25 25 26 26 26 27 27 27 27 27 26 26 26 27 27 27 28 27 27 27 27 26 26 27 28 28 28 28 28 27
21 21 21 21 21 22 23 24 24 24 24 24 25 26 27 27 27 27 28 29 29 29 28 27 28 28 28 28 28 28 28 28 27 28 28 28 28 28 29 29 29 29 29
21 22 21 21 22 22 23 23 24 24 25 26 26 27 28 29 29 29 29 30 30 30 29 28 29 29 29 28 28 28 28 28 28 29 30 30 30 29 30 30 30 30 29
22 22 22 22 23 24 24 24 25 25 26 27 28 28 29 30 31 31 31 31 30 30 30 30 29 30 30 30 29 29 29 29 28 29 30 31 31 30 30 30 31 31 30
22 22 22 22 23 24 25 25 25 26 27 29 29 28 29 29 30 31 31 31 31 30 30 30 30 30 30 30 29 29 29 29 29 29 30 31 32 31 31 31 31 31 31
23 23 23 23 24 25 26 26 26 27 28 28 28 27 28 29 30 30 31 31 31 31 30 30 30 30 29 30 29 29 29 29 29 29 30 30 31 32 33 32 31 31 31
23 22 22 23 24 25 25 26 27 27 28 28 29 29 29 30 29 30 30 30 30 30 30 30 30 29 29 28 29 29 29 29 29 30 30 30 30 31 32 32 31 30 30
23 22 23 24 24 24 25 26 27 28 28 29 29 28 28 29 29 29 29 29 29 29 29 29 29 28 29 28 29 29 29 28 29 29 29 30 30 30 30 31 30 30 30
Wind_Direction
43 5 356 343 326 317 311 306 304 302 303 307 312 315 316 318 320 323 323 324 327 327 325 322 320 318 315 311 309 307 305 302 299 293 289 285 279 277 275 270 264 264 260
289 304 311 309 307 303 301 301 301 300 301 303 306 306 308 312 314 315 316 316 317 318 317 316 313 311 308 304 302 301 298 296 295 289 286 283 278 276 275 270 265 261 257
287 294 299 298 297 295 297 297 297 297 298 299 301 302 304 304 306 308 308 308 309 310 311 309 309 307 304 300 297 295 292 289 288 285 282 281 278 276 271 266 263 258 255
283 287 292 293 294 293 295 295 293 294 294 295 297 299 300 300 300 301 301 300 301 302 302 303 303 302 299 296 294 291 289 284 283 282 280 277 275 271 268 265 259 255 250
284 288 294 295 295 294 295 294 293 294 295 293 294 296 296 297 297 297 296 294 295 296 297 298 298 296 293 291 289 287 286 283 278 278 278 276 270 265 264 261 258 255 247
287 292 294 294 294 295 295 294 292 293 293 292 293 294 293 294 294 293 293 291 292 292 293 294 295 294 291 287 285 283 281 280 276 274 273 272 268 261 259 258 257 255 246
286 289 293 291 293 295 294 293 291 291 290 292 293 292 292 291 291 291 291 291 291 290 289 289 290 289 288 285 282 280 277 274 273 271 269 267 266 263 259 256 254 252 246
284 288 292 290 291 290 289 291 291 291 290 292 293 292 290 289 289 290 291 292 291 289 287 285 286 285 284 284 280 276 274 272 270 270 267 265 264 262 258 256 254 253 250
281 286 289 289 288 286 287 290 291 291 292 293 292 291 290 288 288 289 289 290 290 289 288 285 283 281 281 280 278 275 272 270 268 268 268 266 264 261 259 256 254 253 253
280 281 282 284 287 286 285 287 291 291 291 292 291 290 291 290 289 288 289 289 289 290 289 286 282 279 277 277 276 274 271 270 268 267 265 265 265 262 259 258 257 255 255
280 277 278 282 286 286 288 289 291 291 291 291 290 290 291 291 290 289 290 289 289 288 288 286 281 278 276 275 275 274 273 271 269 267 264 262 264 263 260 258 258 258 258
279 279 281 283 284 287 287 288 289 288 288 289 289 289 290 291 290 290 289 287 286 285 285 284 280 277 276 276 274 272 271 270 269 267 266 261 261 262 261 259 257 258 258
280 282 282 282 282 285 285 287 287 288 289 288 287 287 289 292 291 290 290 287 285 284 284 282 279 276 274 275 274 272 271 268 265 265 265 262 261 261 262 260 257 259 260
280 280 279 279 279 282 283 286 290 289 288 288 287 287 290 292 292 291 290 289 287 285 283 282 280 276 274 274 273 271 270 267 264 263 263 261 259 260 261 260 259 260 260
279 280 281 280 279 281 283 285 288 287 286 285 286 288 289 290 290 290 290 289 288 287 287 285 282 280 276 275 273 271 270 267 264 263 263 260 257 257 258 258 259 261 261
283 282 281 282 283 281 283 285 285 285 285 285 286 286 288 289 289 288 287 286 285 285 286 284 283 281 279 277 274 274 272 269 266 264 263 259 255 255 255 256 258 258 260
284 283 283 284 284 281 282 283 283 283 284 285 285 285 285 286 287 287 287 285 285 284 284 284 282 281 279 277 275 273 271 270 266 264 263 259 256 254 254 254 257 257 259
285 287 284 285 286 284 282 281 280 280 283 286 286 286 285 285 285 284 285 284 284 283 283 282 282 281 279 277 275 273 272 269 264 263 261 258 255 254 253 254 254 254 256
287 287 288 289 288 286 284 282 281 280 283 286 285 285 285 285 286 285 284 284 283 282 281 281 280 280 279 278 276 273 273 270 265 260 258 257 256 254 254 253 252 253 255
288 290 291 290 289 289 288 286 283 283 284 286 285 285 284 284 285 284 284 283 281 281 279 279 279 279 279 278 276 274 271 270 266 260 256 254 254 254 254 253 254 254 254
290 291 290 290 290 290 290 288 287 286 286 286 286 286 285 284 283 282 282 282 281 280 279 279 279 278 277 277 275 273 270 269 266 262 257 255 255 256 255 254 253 254 254
291 290 289 290 290 288 288 289 288 287 287 287 286 286 285 284 283 283 281 281 280 280 279 280 280 279 277 275 274 272 270 268 267 263 260 257 256 256 255 255 254 253 253
291 291 290 290 290 289 289 289 288 289 289 289 289 287 285 284 285 284 282 281 280 280 280 279 279 279 277 274 273 271 270 268 266 262 261 259 257 257 256 255 255 254 255
290 290 291 293 294 294 293 291 291 291 290 291 291 290 288 286 285 285 285 283 281 280 280 279 279 278 277 274 271 270 269 267 264 262 260 260 258 257 255 254 253 253 255
288 289 289 292 293 293 291 290 291 290 291 293 291 289 289 288 286 285 286 284 282 280 280 280 279 277 276 274 273 272 269 267 264 262 260 259 259 258 255 253 252 252 253
288 289 288 288 290 291 291 291 291 292 292 292 292 291 290 289 288 287 285 285 283 281 282 280 278 277 276 275 274 272 270 267 265 263 260 258 259 259 257 253 252 253 254
Height
5916 5915 5915 5915 5915 5914 5914 5913 5913 5912 5912 5911 5910 5910 5909 5908 5908 5907 5906 5906 5905 5905 5904 5904 5903 5903 5902 5902 5901 5901 5900 5900 5900 5899 5899 5898 5897 5897 5897 5896 5895 5895 5894
5915 5914 5914 5914 5913 5913 5913 5912 5911 5911 5910 5909 5909 5908 5907 5907 5906 5905 5905 5904 5904 5903 5903 5902 5902 5901 5901 5900 5900 5899 5899 5899 5898 5898 5897 5897 5896 5896 5895 5895 5894 5894 5893
5914 5913 5913 5912 5912 5912 5911 5911 5910 5909 5908 5908 5907 5906 5906 5905 5905 5904 5903 5903 5902 5901 5901 5900 5900 5899 5899 5898 5898 5897 5897 5897 5896 5896 5895 5895 5894 5894 5894 5893 5893 5892 5892
5912 5912 5911 5911 5911 5910 5910 5909 5908 5907 5907 5906 5905 5905 5904 5903 5903 5902 5901 5901 5900 5899 5899 5898 5898 5897 5896 5896 5896 5895 5895 5895 5894 5894 5893 5893 5892 5892 5892 5892 5891 5891 5891
5911 5910 5910 5909 5909 5908 5908 5907 5906 5906 5905 5904 5903 5903 5902 5901 5901 5900 5899 5898 5898 5897 5896 5896 5895 5895 5894 5893 5893 5893 5892 5892 5892 5891 5891 5891 5890 5890 5890 5890 5890 5889 5889
5909 5908 5908 5907 5907 5906 5906 5905 5904 5904 5903 5902 5901 5900 5900 5899 5898 5898 5897 5896 5895 5895 5894 5893 5893 5892 5891 5891 5890 5890 5890 5889 5889 5889 5889 5888 5888 5888 5888 5887 5887 5887 5887
5907 5906 5905 5905 5905 5904 5903 5903 5902 5901 5901 5900 5899 5898 5897 5896 5895 5895 5894 5893 5892 5892 5891 5891 5890 5889 5889 5888 5888 5887 5887 5887 5886 5886 5886 5886 5885 5885 5885 5885 5885 5885 5885
5905 5904 5903 5903 5902 5902 5901 5900 5900 5899 5898 5897 5896 5895 5894 5893 5892 5892 5891 5890 5889 5888 5888 5887 5887 5886 5885 5885 5884 5884 5884 5884 5884 5883 5883 5883 5882 5882 5882 5882 5882 5882 5882
5903 5902 5901 5901 5900 5900 5899 5898 5897 5896 5895 5894 5893 5892 5891 5890 5889 5888 5887 5886 5885 5885 5884 5884 5883 5882 5882 5881 5881 5881 5880 5880 5880 5880 5880 5880 5879 5879 5879 5878 5878 5878 5878
5901 5900 5899 5898 5898 5897 5896 5895 5894 5893 5892 5891 5890 5889 5887 5886 5885 5884 5883 5882 5881 5881 5880 5879 5879 5879 5878 5877 5877 5877 5876 5876 5876 5875 5875 5876 5876 5875 5875 5875 5875 5875 5875
5898 5897 5896 5896 5895 5894 5893 5892 5891 5890 5889 5888 5886 5885 5884 5883 5881 5880 5879 5878 5877 5876 5876 5875 5875 5874 5874 5873 5873 5872 5872 5872 5871 5871 5871 5871 5872 5871 5871 5871 5871 5871 5871
5896 5895 5894 5893 5892 5891 5889 5888 5887 5886 5885 5884 5883 5881 5880 5879 5877 5876 5875 5874 5873 5872 5871 5870 5870 5870 5869 5869 5868 5868 5867 5867 5867 5866 5866 5867 5867 5867 5867 5867 5867 5867 5868
5893 5892 5891 5890 5888 5887 5886 5885 5884 5883 5881 5880 5879 5877 5876 5875 5873 5872 5870 5869 5868 5867 5866 5865 5865 5864 5864 5864 5863 5863 5862 5862 5862 5861 5861 5862 5862 5863 5863 5863 5863 5863 5863
5889 5888 5887 5886 5884 5883 5882 5881 5880 5878 5877 5876 5875 5873 5872 5871 5869 5867 5866 5864 5863 5862 5861 5860 5859 5859 5858 5858 5858 5857 5857 5857 5856 5856 5856 5857 5857 5858 5858 5858 5858 5859 5859
5886 5884 5883 5882 5881 5879 5878 5877 5876 5874 5873 5871 5870 5869 5867 5866 5865 5863 5861 5860 5858 5857 5856 5855 5854 5853 5853 5853 5852 5852 5851 5851 5851 5850 5851 5851 5851 5852 5853 5853 5853 5854 5854
5882 5880 5879 5878 5877 5875 5874 5873 5871 5870 5868 5867 5866 5864 5863 5861 5860 5858 5857 5855 5853 5852 5851 5850 5849 5848 5847 5847 5846 5846 5845 5845 5845 5845 5844 5845 5845 5846 5847 5848 5848 5849 5849
5878 5876 5874 5873 5872 5870 5869 5868 5867 5865 5864 5862 5861 5860 5858 5856 5855 5853 5851 5850 5849 5847 5846 5844 5843 5842 5841 5841 5840 5840 5839 5839 5839 5839 5838 5839 5839 5840 5841 5842 5843 5844 5844
5874 5872 5869 5869 5867 5866 5864 5863 5862 5860 5859 5857 5856 5854 5853 5851 5849 5848 5846 5844 5843 5841 5840 5839 5838 5837 5836 5835 5834 5833 5833 5832 5832 5832 5832 5832 5833 5834 5834 5836 5837 5838 5839
5869 5868 5866 5864 5863 5861 5859 5858 5857 5855 5854 5852 5850 5849 5847 5845 5843 5841 5840 5839 5837 5836 5834 5833 5832 5830 5829 5828 5827 5826 5826 5825 5825 5825 5826 5825 5826 5827 5828 5829 5830 5831 5832
5864 5863 5861 5860 5858 5856 5854 5853 5851 5850 5848 5846 5844 5842 5840 5839 5837 5835 5834 5832 5830 5829 5827 5826 5825 5823 5822 5821 5820 5819 5818 5818 5818 5818 5818 5819 5820 5820 5821 5823 5824 5825 5826
5860 5858 5857 5855 5853 5851 5849 5848 5846 5844 5842 5840 5838 5836 5834 5832 5830 5829 5827 5825 5823 5821 5820 5819 5818 5816 5815 5814 5813 5812 5811 5811 5811 5811 5811 5812 5813 5813 5814 5816 5817 5818 5819
5855 5853 5852 5849 5847 5845 5844 5842 5840 5838 5836 5834 5831 5828 5826 5824 5823 5821 5820 5818 5816 5814 5813 5812 5810 5809 5807 5806 5806 5805 5804 5804 5803 5803 5804 5804 5805 5806 5807 5808 5810 5811 5812
5850 5849 5846 5844 5842 5840 5839 5836 5834 5832 5830 5827 5824 5821 5819 5817 5815 5814 5812 5810 5808 5806 5805 5804 5802 5801 5800 5799 5798 5797 5796 5796 5796 5796 5796 5797 5798 5798 5800 5801 5803 5804 5805
5845 5843 5841 5839 5837 5835 5834 5831 5829 5826 5823 5820 5817 5815 5812 5810 5807 5805 5804 5802 5800 5798 5797 5795 5794 5793 5792 5791 5790 5789 5789 5788 5788 5788 5789 5789 5789 5790 5792 5793 5795 5797 5799
5839 5837 5836 5834 5832 5830 5828 5825 5822 5819 5817 5814 5811 5808 5805 5802 5799 5797 5796 5793 5792 5790 5788 5787 5786 5785 5783 5782 5782 5781 5780 5780 5780 5780 5781 5781 5781 5782 5784 5785 5787 5789 5791
5834 5832 5830 5829 5827 5824 5822 5819 5816 5813 5810 5807 5804 5801 5798 5795 5793 5790 5788 5786 5784 5782 5780 5779 5777 5776 5775 5774 5773 5773 5772 5772 5772 5772 5773 5773 5774 5775 5776 5777 5779 5781 5783